Date String (YYYY-MM-DD hh:mm:ss) UTC,Instrument flags,absolute air pressure of the measurement (hPa),sample flow rate (lpm),inlet stack bypass flow (lpm),air temperature of the measurement (°C),ambient temperature measured by the external sensor (°C),aerosol sample conditioner tube jacket temperature (°C),OPC LED temperature (°C),internal box temperature (°C),relative humidity of the measurement (%),span deviation,mass concentration of particles derived from Lorenz-Mie calculation of OPC scattering (μg/m³),mass concentration of particles derived from Lorenz-Mie calculation of OPC scattering (μg/m³),mass concentration of particles derived from Lorenz-Mie calculation of OPC scattering (μg/m³)
DateTimeUTC,F1_M11,P_M11,Q1_M11,Q2_M11,T1_M11,T2_M11,T3_M11,T4_M11,T5_M11,U1_M11,ZSPAN_M11,X2_M11,X0_M11,X1_M11
2023-07-12 13:00:00,SystemResetWarning,0831.8,5.00,000.00,029.8,027.2,000.0,038.1,031.3,14.3,0000.0,0004.18,0011.24,0003.50
2023-07-12 13:01:00,SystemResetWarning,0831.8,5.01,000.00,029.7,025.7,000.0,038.0,031.0,14.6,0000.0,0004.22,0011.56,0003.50
2023-07-12 13:02:00,SystemResetWarning,0831.7,5.01,000.00,029.6,025.6,000.0,038.0,030.8,14.9,0000.0,0004.24,0011.99,0003.50
2023-07-12 13:03:00,SystemResetWarning,0831.7,5.01,000.00,029.5,025.9,000.0,038.0,030.7,14.7,0000.0,0004.24,0011.60,0003.50
2023-07-12 13:04:00,SystemResetWarning,0831.7,5.00,000.00,029.4,026.3,000.0,038.0,030.7,14.2,0000.0,0004.25,0011.84,0003.49
2023-07-12 13:05:00,SystemResetWarning,0831.7,4.99,000.00,029.4,026.6,000.0,038.0,030.8,14.1,0000.0,0004.23,0011.79,0003.49
2023-07-12 13:06:00,SystemResetWarning,0831.7,5.00,000.00,029.4,026.9,000.0,038.0,030.9,14.1,0000.0,0004.26,0011.97,0003.49
2023-07-12 13:07:00,SystemResetWarning,0831.7,5.00,000.00,029.4,027.2,000.0,038.0,030.9,14.1,0000.0,0004.30,0012.29,0003.50
2023-07-12 13:08:00,SystemResetWarning,0831.7,5.01,000.00,029.5,027.5,000.0,038.0,031.0,14.2,0000.0,0004.29,0011.73,0003.50
2023-07-12 13:09:00,SystemResetWarning,0831.7,5.00,000.00,029.5,027.7,000.0,038.0,031.0,14.2,0000.0,0004.29,0010.86,0003.49
2023-07-12 13:10:00,SystemResetWarning,0831.7,5.00,000.00,029.5,027.8,000.0,038.0,031.1,14.1,0000.0,0004.25,0010.83,0003.49
2023-07-12 13:11:00,SystemResetWarning,0831.7,5.00,000.00,029.5,028.0,000.0,038.0,031.1,14.4,0000.0,0004.27,0011.16,0003.50
2023-07-12 13:12:00,SystemResetWarning,0831.7,4.99,000.00,029.5,028.1,000.0,038.0,031.1,14.3,0000.0,0004.29,0010.97,0003.51
2023-07-12 13:13:00,SystemResetWarning,0831.7,4.99,000.00,029.6,028.2,000.0,038.1,031.1,14.5,0000.0,0004.30,0010.47,0003.51
2023-07-12 13:14:00,SystemResetWarning,0831.7,5.01,000.00,029.6,028.3,000.0,038.1,031.2,14.3,0000.0,0004.27,0010.17,0003.51
2023-07-12 13:15:00,SystemResetWarning,0831.7,5.01,000.00,029.6,028.3,000.0,038.1,031.2,14.1,0000.0,0004.26,0010.10,0003.52
2023-07-12 13:16:00,SystemResetWarning,0831.7,4.99,000.00,029.6,028.4,000.0,038.1,031.2,14.0,0000.0,0004.24,0009.72,0003.53
2023-07-12 13:17:00,SystemResetWarning,0831.7,5.00,000.00,029.7,028.4,000.0,038.1,031.3,14.1,0000.0,0004.21,0010.11,0003.53
2023-07-12 13:18:00,SystemResetWarning,0831.7,5.02,000.00,029.7,028.5,000.0,038.1,031.3,14.4,0000.0,0004.18,0009.86,0003.53
2023-07-12 13:19:00,SystemResetWarning,0831.8,5.00,000.00,029.7,028.5,000.0,038.2,031.3,14.4,0000.0,0004.14,0010.47,0003.52
2023-07-12 13:20:00,SystemResetWarning,0832.0,4.99,000.00,029.7,028.5,000.0,038.2,031.3,14.0,0000.0,0004.18,0010.75,0003.52
2023-07-12 13:21:00,SystemResetWarning,0832.1,5.00,000.00,029.8,028.6,000.0,038.2,031.4,14.2,0000.0,0004.23,0010.76,0003.52
2023-07-12 13:22:00,SystemResetWarning,0832.1,5.00,000.00,029.8,028.6,000.0,038.2,031.4,13.8,0000.0,0004.23,0010.40,0003.52
2023-07-12 13:23:00,SystemResetWarning,0832.2,5.00,000.00,029.8,028.2,000.0,038.2,031.4,14.2,0000.0,0004.20,0010.31,0003.51
2023-07-12 13:24:00,SystemResetWarning,0832.0,5.00,000.00,029.8,026.3,000.0,038.1,031.1,14.3,0000.0,0004.17,0010.13,0003.51
2023-07-12 13:25:00,SystemResetWarning,0831.8,5.02,000.00,029.7,025.6,000.0,038.0,031.0,14.3,0000.0,0004.18,0010.59,0003.50
2023-07-12 13:26:00,SystemResetWarning,0832.3,5.00,000.00,029.6,025.8,000.0,038.0,030.7,14.1,0000.0,0004.20,0011.17,0003.50
2023-07-12 13:27:00,SystemResetWarning,0831.8,5.00,000.00,029.5,026.1,000.0,038.0,030.7,14.0,0000.0,0004.18,0011.20,0003.49
2023-07-12 13:28:00,SystemResetWarning,0831.9,5.00,000.00,029.5,026.5,000.0,038.0,030.8,14.3,0000.0,0004.17,0010.93,0003.49
2023-07-12 13:29:00,SystemResetWarning,0831.9,5.00,000.00,029.5,026.9,000.0,038.0,030.9,15.0,0000.0,0004.16,0010.95,0003.48
2023-07-12 13:30:00,SystemResetWarning,0832.0,5.00,000.00,029.5,027.2,000.0,038.0,031.0,15.8,0000.0,0004.16,0010.35,0003.48
2023-07-12 13:31:00,SystemResetWarning,0832.0,5.00,000.00,029.5,027.4,000.0,038.0,031.0,17.2,0000.0,0004.15,0010.41,0003.48
2023-07-12 13:32:00,SystemResetWarning,0832.0,5.00,000.00,029.5,027.6,000.0,038.1,031.0,18.7,0000.0,0004.12,0010.18,0003.49
2023-07-12 13:33:00,SystemResetWarning,0832.0,5.00,000.00,029.5,027.8,000.0,038.1,031.1,17.9,0000.0,0004.10,0010.20,0003.49
2023-07-12 13:34:00,SystemResetWarning,0832.0,4.99,000.00,029.6,028.0,000.0,038.1,031.2,18.1,0000.0,0004.05,0010.10,0003.49
2023-07-12 13:35:00,SystemResetWarning,0832.0,4.99,000.00,029.6,028.1,000.0,038.1,031.2,17.4,0000.0,0004.05,0010.05,0003.49
2023-07-12 13:36:00,SystemResetWarning,0832.1,5.01,000.00,029.6,028.3,000.0,038.1,031.2,16.9,0000.0,0004.11,0009.59,0003.51
2023-07-12 13:37:00,SystemResetWarning,0832.1,5.02,000.00,029.6,028.4,000.0,038.1,031.3,17.0,0000.0,0004.10,0008.99,0003.50
2023-07-12 13:38:00,SystemResetWarning,0832.2,5.00,000.00,029.7,028.5,000.0,038.1,031.3,17.8,0000.0,0004.10,0009.02,0003.50
2023-07-12 13:39:00,SystemResetWarning,0832.2,4.99,000.00,029.7,028.5,000.0,038.1,031.4,17.7,0000.0,0004.10,0009.52,0003.50
2023-07-12 13:40:00,SystemResetWarning,0832.2,4.99,000.00,029.7,028.6,000.0,038.2,031.4,18.3,0000.0,0004.10,0010.54,0003.50
2023-07-12 13:41:00,SystemResetWarning,0832.3,5.02,000.00,029.8,028.7,000.0,038.2,031.4,18.4,0000.0,0004.12,0010.58,0003.51
2023-07-12 13:42:00,SystemResetWarning,0832.3,4.99,000.00,029.8,027.8,000.0,038.1,031.4,18.0,0000.0,0004.13,0010.25,0003.51
2023-07-12 13:43:00,SystemResetWarning,0832.3,5.01,000.00,029.7,026.3,000.0,038.0,031.1,17.5,0000.0,0004.14,0010.03,0003.51
2023-07-12 13:44:00,SystemResetWarning,0832.2,5.01,000.00,029.7,026.2,000.0,038.0,031.0,18.6,0000.0,0004.16,0010.04,0003.51
2023-07-12 13:45:00,SystemResetWarning,0832.3,4.99,000.00,029.6,026.4,000.0,038.0,030.9,18.0,0000.0,0004.22,0010.30,0003.52
2023-07-12 13:46:00,SystemResetWarning,0832.3,5.00,000.00,029.6,026.8,000.0,038.0,030.9,18.4,0000.0,0004.26,0010.41,0003.52
2023-07-12 13:47:00,SystemResetWarning,0832.3,5.01,000.00,029.5,027.1,000.0,038.1,031.0,19.1,0000.0,0004.23,0011.50,0003.53
2023-07-12 13:48:00,SystemResetWarning,0832.3,5.00,000.00,029.6,027.4,000.0,038.1,031.1,17.6,0000.0,0004.25,0012.80,0003.54
2023-07-12 13:49:00,SystemResetWarning,0832.3,5.00,000.00,029.6,027.6,000.0,038.1,031.1,17.6,0000.0,0004.30,0014.10,0003.55
2023-07-12 13:50:00,SystemResetWarning,0832.3,4.98,000.00,029.6,027.8,000.0,038.1,031.2,18.0,0000.0,0004.37,0014.99,0003.57
2023-07-12 13:51:00,SystemResetWarning,0832.3,5.01,000.00,029.6,028.0,000.0,038.1,031.2,18.6,0000.0,0004.43,0015.47,0003.59
2023-07-12 13:52:00,SystemResetWarning,0832.3,5.00,000.00,029.6,028.2,000.0,038.1,031.3,18.4,0000.0,0004.48,0016.59,0003.61
2023-07-12 13:53:00,SystemResetWarning,0832.3,4.99,000.00,029.7,028.3,000.0,038.1,031.3,17.8,0000.0,0004.54,0016.79,0003.62
2023-07-12 13:54:00,SystemResetWarning,0832.3,5.01,000.00,029.7,028.4,000.0,038.2,031.3,18.9,0000.0,0004.60,0016.84,0003.64
2023-07-12 13:55:00,SystemResetWarning,0832.4,5.00,000.00,029.7,028.5,000.0,038.2,031.4,18.0,0000.0,0004.68,0017.20,0003.66
2023-07-12 13:56:00,SystemResetWarning,0832.4,4.98,000.00,029.7,027.5,000.0,038.1,031.3,17.8,0000.0,0004.70,0017.34,0003.68
2023-07-12 13:57:00,SystemResetWarning,0832.4,5.01,000.00,029.7,025.6,000.0,038.0,031.0,18.8,0000.0,0004.76,0017.46,0003.70
2023-07-12 13:58:00,SystemResetWarning,0832.4,5.01,000.00,029.6,025.3,000.0,037.9,030.9,18.6,0000.0,0004.82,0016.65,0003.72
2023-07-12 13:59:00,SystemResetWarning,0832.5,5.01,000.00,029.5,025.6,000.0,037.9,030.8,18.8,0000.0,0004.83,0015.44,0003.73
